Location: Ceske Budejovice
(48.9830°N, 14.4670°E)
Time: 06:56:02
(UTC+02:00)

ISS - Pass Details

Date: 08 July 2022
Orbit: 412 x 420 km, 51.6° (Epoch: 18 August)

Event Time Altitude Azimuth Distance (km) Brightness Sun altitude
Exits shadow 00:56:31 30° 102° (ESE) 785 -2.6 -18.5°
Drops below altitude 10° 00:58:35 10° 77° (ENE) 1,499 -0.8 -18.5°
Sets 01:00:48 0° 70° (ENE) 2,384 0.3 -18.5°
